| time (UTC) | temp F | wind direction | speed knots | gust knots | rain 1hr in | rain 24hr in | rain mn in | humidity % | barometer mb |
| 20260901233102 | 67 | 0 | 0.0 | 0.9 | 0.00 | 0.00 | 0.00 | 72 | 1023.1 |
| 20260901231602 | 68 | 0 | 0.0 | 0.9 | 0.00 | 0.00 | 0.00 | 72 | 1023.1 |
| 20260901230101 | 68 | 0 | 0.0 | 0.9 | 0.00 | 0.00 | 0.00 | 73 | 1023.1 |
| 20260901224606 | 68 | 360 | 0.0 | 0.9 | 0.00 | 0.00 | 0.00 | 71 | 1023.1 |
| 20260901223103 | 68 | 0 | 0.0 | 0.9 | 0.00 | 0.00 | 0.00 | 73 | 1023.1 |
| 20260901221600 | 69 | 0 | 0.0 | 0.9 | 0.00 | 0.00 | 0.00 | 73 | 1023.2 |
| 20260901220134 | 69 | 360 | 0.9 | 2.6 | 0.00 | 0.00 | 0.00 | 73 | 1023.1 |
| 20260901214604 | 69 | 360 | 1.7 | 2.6 | 0.00 | 0.00 | 0.00 | 73 | 1023.1 |
| 20260901213122 | 69 | 0 | 0.0 | 1.7 | 0.00 | 0.00 | 0.00 | 73 | 1022.9 |
| 20260901211554 | 69 | 0 | 0.0 | 2.6 | 0.00 | 0.00 | 0.00 | 73 | 1022.9 |
| 20260901210117 | 70 | 360 | 1.7 | 2.6 | 0.00 | 0.00 | 0.00 | 72 | 1022.8 |
| 20260901204558 | 70 | 0 | 1.7 | 2.6 | 0.00 | 0.00 | 0.00 | 72 | 1022.7 |
| 20260901203058 | 71 | 0 | 0.0 | 2.6 | 0.00 | 0.00 | 0.00 | 72 | 1022.8 |
| 20260901201554 | 71 | 360 | 2.6 | 3.5 | 0.00 | 0.00 | 0.00 | 71 | 1022.7 |
| 20260901200058 | 71 | 0 | 0.9 | 3.5 | 0.00 | 0.00 | 0.00 | 70 | 1022.8 |
| 20260901194559 | 72 | 360 | 0.0 | 1.7 | 0.00 | 0.00 | 0.00 | 68 | 1022.9 |
| 20260901193106 | 72 | 0 | 0.0 | 2.6 | 0.00 | 0.00 | 0.00 | 68 | 1022.9 |
| 20260901191558 | 73 | 360 | 0.9 | 2.6 | 0.00 | 0.00 | 0.00 | 68 | 1023.1 |
| 20260901190055 | 73 | 0 | 0.0 | 1.7 | 0.00 | 0.00 | 0.00 | 67 | 1022.6 |
| 20260901184609 | 73 | 360 | 1.7 | 4.3 | 0.00 | 0.00 | 0.00 | 68 | 1022.3 |
| 20260901183108 | 74 | 360 | 2.6 | 4.3 | 0.00 | 0.00 | 0.00 | 67 | 1022.1 |
| 20260901181604 | 74 | 355 | 1.7 | 5.2 | 0.00 | 0.00 | 0.00 | 67 | 1021.9 |
| 20260901180100 | 75 | 15 | 0.9 | 4.3 | 0.00 | 0.00 | 0.00 | 66 | 1021.7 |
| 20260901174600 | 75 | 0 | 0.0 | 3.5 | 0.00 | 0.00 | 0.00 | 65 | 1021.8 |
| 20260901173056 | 76 | 360 | 1.7 | 3.5 | 0.00 | 0.00 | 0.00 | 63 | 1021.7 |
| 20260901171558 | 77 | 0 | 0.0 | 2.6 | 0.00 | 0.00 | 0.00 | 62 | 1021.6 |
| 20260901170108 | 78 | 0 | 1.7 | 3.5 | 0.00 | 0.00 | 0.00 | 60 | 1021.6 |
| 20260901164558 | 79 | 0 | 0.0 | 6.1 | 0.00 | 0.00 | 0.00 | 59 | 1021.6 |
| 20260901163059 | 80 | 0 | 0.9 | 4.3 | 0.00 | 0.00 | 0.00 | 58 | 1021.5 |
| 20260901161558 | 80 | 171 | 1.7 | 7.0 | 0.00 | 0.00 | 0.00 | 57 | 1021.8 |
| 20260901160051 | 81 | 185 | 0.9 | 4.3 | 0.00 | 0.00 | 0.00 | 56 | 1021.9 |
| 20260901154617 | 82 | 192 | 2.6 | 7.0 | 0.00 | 0.00 | 0.00 | 54 | 1022.0 |
| 20260901153105 | 83 | 177 | 1.7 | 7.0 | 0.00 | 0.00 | 0.00 | 54 | 1021.9 |
| 20260901151552 | 83 | 189 | 0.9 | 8.7 | 0.00 | 0.00 | 0.00 | 53 | 1022.0 |
| 20260901150117 | 82 | 144 | 2.6 | 8.7 | 0.00 | 0.00 | 0.00 | 55 | 1022.1 |
| 20260901144603 | 82 | 195 | 4.3 | 12.2 | 0.00 | 0.00 | 0.00 | 55 | 1022.0 |
| 20260901143102 | 83 | 188 | 5.2 | 13.0 | 0.00 | 0.00 | 0.00 | 53 | 1022.1 |
| 20260901141602 | 84 | 198 | 3.5 | 10.4 | 0.00 | 0.00 | 0.00 | 52 | 1022.1 |
| 20260901140059 | 86 | 185 | 2.6 | 9.6 | 0.00 | 0.00 | 0.00 | 46 | 1022.0 |
| 20260901134601 | 86 | 96 | 2.6 | 7.8 | 0.00 | 0.00 | 0.00 | 43 | 1022.2 |
| 20260901133058 | 87 | 141 | 0.9 | 7.0 | 0.00 | 0.00 | 0.00 | 41 | 1022.1 |
| 20260901131606 | 86 | 155 | 2.6 | 7.0 | 0.00 | 0.00 | 0.00 | 41 | 1022.1 |
| 20260901124606 | 86 | 130 | 3.5 | 7.8 | 0.00 | 0.00 | 0.00 | 42 | 1022.2 |
| 20260901123102 | 85 | 144 | 3.5 | 11.3 | 0.00 | 0.00 | 0.00 | 43 | 1022.3 |
| 20260901121610 | 85 | 109 | 3.5 | 8.7 | 0.00 | 0.00 | 0.00 | 42 | 1022.3 |
| 20260901120115 | 85 | 119 | 2.6 | 10.4 | 0.00 | 0.00 | 0.00 | 44 | 1022.4 |
| 20260901114609 | 85 | 174 | 3.5 | 13.0 | 0.00 | 0.00 | 0.00 | 45 | 1022.5 |
| 20260901113103 | 86 | 90 | 0.9 | 7.0 | 0.00 | 0.00 | 0.00 | 43 | 1022.4 |
| 20260901111604 | 85 | 109 | 1.7 | 7.0 | 0.00 | 0.00 | 0.00 | 45 | 1022.4 |
| 20260901110056 | 85 | 113 | 2.6 | 8.7 | 0.00 | 0.00 | 0.00 | 47 | 1022.4 |
| 20260901104555 | 85 | 83 | 0.0 | 7.8 | 0.00 | 0.00 | 0.00 | 47 | 1022.3 |
| 20260901103107 | 84 | 132 | 3.5 | 9.6 | 0.00 | 0.00 | 0.00 | 48 | 1022.3 |
| 20260901101601 | 84 | 0 | 0.9 | 7.0 | 0.00 | 0.00 | 0.00 | 47 | 1022.3 |
| 20260901100145 | 83 | 126 | 2.6 | 7.0 | 0.00 | 0.00 | 0.00 | 48 | 1022.3 |
| 20260901094556 | 82 | 5 | 1.7 | 7.8 | 0.00 | 0.00 | 0.00 | 50 | 1022.4 |
| 20260901093054 | 82 | 0 | 0.9 | 4.3 | 0.00 | 0.00 | 0.00 | 54 | 1022.5 |
| 20260901091610 | 81 | 124 | 0.9 | 6.1 | 0.00 | 0.00 | 0.00 | 56 | 1022.5 |
| 20260901084553 | 79 | 109 | 0.9 | 4.3 | 0.00 | 0.00 | 0.00 | 61 | 1022.3 |
| 20260901083106 | 77 | 121 | 0.9 | 4.3 | 0.00 | 0.00 | 0.00 | 63 | 1022.4 |
| 20260901081556 | 76 | 0 | 0.0 | 4.3 | 0.00 | 0.00 | 0.00 | 65 | 1022.2 |
| 20260901074552 | 75 | 104 | 0.9 | 4.3 | 0.00 | 0.00 | 0.00 | 64 | 1022.1 |
| 20260901073050 | 74 | 0 | 0.9 | 2.6 | 0.00 | 0.00 | 0.00 | 67 | 1021.9 |
| 20260901071555 | 73 | 121 | 0.9 | 2.6 | 0.00 | 0.00 | 0.00 | 69 | 1021.9 |
| 20260901070055 | 72 | 0 | 0.9 | 2.6 | 0.00 | 0.00 | 0.00 | 71 | 1021.9 |
| 20260901064607 | 70 | 92 | 0.0 | 2.6 | 0.00 | 0.00 | 0.00 | 73 | 1021.9 |
| 20260901063100 | 69 | 52 | 0.0 | 1.7 | 0.00 | 0.00 | 0.00 | 74 | 1022.0 |
| 20260901061554 | 67 | 51 | 0.0 | 1.7 | 0.00 | 0.00 | 0.00 | 75 | 1022.1 |
| 20260901060100 | 66 | 0 | 0.0 | 1.7 | 0.00 | 0.00 | 0.00 | 75 | 1022.0 |
| 20260901054553 | 66 | 0 | 0.0 | 1.7 | 0.00 | 0.00 | 0.00 | 75 | 1021.9 |
| 20260901053104 | 65 | 0 | 0.0 | 0.0 | 0.00 | 0.00 | 0.00 | 76 | 1021.8 |
| 20260901051603 | 65 | 0 | 0.0 | 0.0 | 0.00 | 0.00 | 0.00 | 76 | 1021.9 |
| 20260901050100 | 65 | 0 | 0.0 | 1.7 | 0.00 | 0.00 | 0.00 | 76 | 1021.7 |
| 20260901044602 | 65 | 0 | 0.0 | 0.0 | 0.00 | 0.00 | 0.00 | 77 | 1021.7 |
| 20260901043105 | 66 | 0 | 0.0 | 0.9 | 0.00 | 0.00 | 0.00 | 76 | 1021.7 |
| 20260901041557 | 66 | 0 | 0.0 | 0.9 | 0.00 | 0.00 | 0.00 | 74 | 1021.6 |
| 20260901034603 | 66 | 0 | 0.0 | 0.9 | 0.00 | 0.00 | 0.00 | 73 | 1021.5 |
| 20260901033100 | 66 | 0 | 0.9 | 2.6 | 0.00 | 0.00 | 0.00 | 70 | 1021.5 |
| 20260901031600 | 66 | 0 | 0.0 | 2.6 | 0.00 | 0.00 | 0.00 | 71 | 1021.4 |
| 20260901030058 | 66 | 0 | 0.0 | 1.7 | 0.00 | 0.00 | 0.00 | 72 | 1021.4 |
| 20260901024554 | 66 | 18 | 0.0 | 1.7 | 0.00 | 0.00 | 0.00 | 72 | 1021.4 |
| 20260901023102 | 67 | 0 | 0.0 | 2.6 | 0.00 | 0.00 | 0.00 | 75 | 1021.3 |
| 20260901021601 | 67 | 0 | 0.9 | 2.6 | 0.00 | 0.00 | 0.00 | 74 | 1021.1 |
| 20260901014559 | 67 | 360 | 1.7 | 4.3 | 0.00 | 0.00 | 0.00 | 77 | 1021.1 |
| 20260901013118 | 67 | 360 | 2.6 | 5.2 | 0.00 | 0.00 | 0.00 | 74 | 1021.2 |
| 20260901011556 | 67 | 0 | 0.9 | 2.6 | 0.00 | 0.00 | 0.00 | 73 | 1021.3 |
| 20260901010110 | 68 | 360 | 2.6 | 5.2 | 0.00 | 0.00 | 0.00 | 73 | 1021.2 |
| 20260901004557 | 68 | 360 | 0.9 | 3.5 | 0.00 | 0.00 | 0.00 | 67 | 1021.1 |
| 20260901003054 | 68 | 360 | 0.0 | 2.6 | 0.00 | 0.00 | 0.00 | 68 | 1021.0 |
| 20260901001601 | 68 | 0 | 0.0 | 1.7 | 0.00 | 0.00 | 0.00 | 66 | 1020.9 |
| 20260831234630 | 68 | 0 | 0.0 | 0.9 | 0.00 | 0.00 | 0.00 | 69 | 1021.0 |